Precipitable_Water
0.90 0.94 0.98 0.98 0.98 0.96 0.96 0.96 0.96 0.96 0.96 0.96 0.94 0.92 0.90 0.88 0.86 0.84 0.84 0.84 0.82 0.80 0.76 0.72 0.70 0.70 0.68 0.68 0.68 0.68 0.66 0.60 0.56 0.54 0.52 0.50 0.48 0.48 0.46 0.46 0.46 0.46 0.46 0.44 0.46 0.46 0.46 0.46 0.46 0.46 0.46 0.46 0.46 0.48 0.46 0.48 0.48 0.48 0.46 0.48 0.48 0.46 0.48 0.50 0.48 0.48 0.50 0.48 0.48 0.50 0.50 0.48 0.48 0.48 0.48 0.50 0.50 0.52 0.50 0.52 0.52 0.52 0.52 0.52 0.52 0.54
0.86 0.92 0.96 0.96 0.94 0.94 0.92 0.94 0.94 0.94 0.94 0.94 0.92 0.90 0.86 0.84 0.82 0.82 0.80 0.82 0.82 0.78 0.72 0.70 0.68 0.68 0.68 0.68 0.66 0.66 0.64 0.58 0.54 0.52 0.50 0.48 0.46 0.46 0.46 0.44 0.44 0.44 0.44 0.44 0.44 0.44 0.44 0.44 0.44 0.44 0.44 0.44 0.44 0.44 0.44 0.44 0.44 0.44 0.42 0.44 0.44 0.42 0.44 0.44 0.44 0.44 0.46 0.42 0.42 0.44 0.46 0.42 0.42 0.44 0.42 0.44 0.46 0.48 0.46 0.48 0.48 0.48 0.48 0.48 0.50 0.52
0.86 0.90 0.92 0.94 0.94 0.92 0.90 0.92 0.92 0.94 0.94 0.92 0.92 0.88 0.84 0.82 0.80 0.80 0.78 0.78 0.78 0.76 0.72 0.70 0.68 0.66 0.66 0.64 0.62 0.60 0.58 0.54 0.50 0.50 0.48 0.46 0.44 0.44 0.44 0.44 0.44 0.44 0.44 0.44 0.44 0.44 0.44 0.42 0.42 0.42 0.40 0.42 0.42 0.42 0.40 0.40 0.40 0.40 0.39 0.40 0.39 0.39 0.39 0.40 0.40 0.39 0.40 0.39 0.39 0.39 0.40 0.39 0.39 0.40 0.39 0.40 0.42 0.42 0.42 0.44 0.42 0.42 0.44 0.44 0.46 0.48
0.88 0.90 0.90 0.92 0.92 0.92 0.90 0.90 0.92 0.92 0.92 0.92 0.90 0.86 0.84 0.82 0.78 0.76 0.76 0.76 0.74 0.72 0.68 0.68 0.68 0.66 0.62 0.60 0.58 0.56 0.54 0.50 0.48 0.46 0.46 0.44 0.44 0.44 0.44 0.42 0.42 0.42 0.42 0.42 0.42 0.42 0.42 0.40 0.40 0.40 0.39 0.39 0.39 0.39 0.37 0.37 0.37 0.37 0.33 0.35 0.35 0.35 0.35 0.35 0.35 0.33 0.35 0.35 0.35 0.35 0.35 0.35 0.37 0.37 0.37 0.39 0.39 0.40 0.40 0.40 0.40 0.40 0.42 0.42 0.44 0.44
0.86 0.90 0.90 0.90 0.90 0.90 0.90 0.90 0.90 0.90 0.90 0.88 0.86 0.82 0.80 0.78 0.76 0.76 0.74 0.74 0.72 0.70 0.66 0.66 0.66 0.64 0.58 0.54 0.54 0.52 0.52 0.48 0.46 0.44 0.44 0.42 0.42 0.42 0.42 0.42 0.42 0.42 0.42 0.40 0.40 0.40 0.40 0.39 0.37 0.37 0.35 0.35 0.35 0.35 0.31 0.31 0.33 0.31 0.29 0.29 0.31 0.31 0.29 0.31 0.29 0.29 0.29 0.31 0.31 0.31 0.33 0.33 0.33 0.35 0.35 0.35 0.37 0.37 0.39 0.39 0.39 0.39 0.40 0.42 0.42 0.42
0.84 0.88 0.88 0.88 0.88 0.88 0.88 0.86 0.86 0.86 0.86 0.84 0.82 0.78 0.76 0.76 0.74 0.74 0.72 0.72 0.70 0.68 0.66 0.66 0.64 0.60 0.54 0.50 0.48 0.48 0.48 0.44 0.44 0.42 0.42 0.42 0.40 0.40 0.42 0.40 0.40 0.39 0.39 0.37 0.37 0.37 0.37 0.35 0.33 0.33 0.31 0.31 0.31 0.31 0.29 0.29 0.29 0.29 0.29 0.29 0.29 0.29 0.27 0.27 0.27 0.27 0.27 0.29 0.29 0.29 0.31 0.31 0.31 0.33 0.33 0.33 0.35 0.37 0.37 0.37 0.37 0.39 0.39 0.39 0.40 0.40
0.82 0.84 0.84 0.86 0.86 0.86 0.86 0.82 0.82 0.82 0.80 0.80 0.78 0.74 0.74 0.74 0.72 0.72 0.70 0.68 0.68 0.66 0.64 0.64 0.60 0.56 0.50 0.46 0.46 0.46 0.44 0.42 0.40 0.40 0.40 0.39 0.39 0.39 0.39 0.37 0.37 0.37 0.37 0.35 0.33 0.33 0.33 0.31 0.31 0.31 0.31 0.29 0.29 0.29 0.29 0.29 0.29 0.29 0.29 0.29 0.29 0.29 0.29 0.27 0.27 0.27 0.27 0.27 0.27 0.27 0.29 0.29 0.29 0.31 0.31 0.31 0.33 0.35 0.35 0.37 0.37 0.37 0.37 0.39 0.39 0.39
0.78 0.80 0.78 0.80 0.80 0.82 0.82 0.78 0.76 0.78 0.76 0.76 0.72 0.70 0.70 0.72 0.70 0.70 0.68 0.68 0.66 0.64 0.60 0.58 0.56 0.52 0.44 0.44 0.44 0.42 0.42 0.39 0.37 0.37 0.37 0.37 0.35 0.37 0.37 0.35 0.33 0.33 0.33 0.31 0.31 0.31 0.31 0.29 0.29 0.29 0.29 0.29 0.29 0.29 0.29 0.29 0.29 0.29 0.29 0.29 0.29 0.29 0.29 0.27 0.27 0.27 0.27 0.27 0.27 0.27 0.27 0.29 0.29 0.29 0.31 0.31 0.31 0.33 0.33 0.35 0.35 0.37 0.37 0.37 0.37 0.37
0.74 0.74 0.72 0.74 0.74 0.74 0.74 0.70 0.72 0.72 0.74 0.74 0.70 0.68 0.68 0.68 0.68 0.66 0.66 0.66 0.66 0.62 0.58 0.54 0.50 0.46 0.40 0.40 0.40 0.40 0.39 0.37 0.35 0.33 0.33 0.31 0.31 0.31 0.33 0.31 0.31 0.31 0.31 0.29 0.29 0.29 0.29 0.29 0.29 0.29 0.29 0.29 0.29 0.29 0.27 0.27 0.29 0.29 0.29 0.29 0.29 0.29 0.27 0.27 0.27 0.27 0.27 0.27 0.27 0.29 0.29 0.29 0.29 0.29 0.29 0.31 0.31 0.31 0.31 0.33 0.33 0.35 0.35 0.35 0.37 0.37
0.72 0.70 0.68 0.70 0.70 0.70 0.68 0.66 0.68 0.70 0.72 0.72 0.72 0.70 0.70 0.66 0.64 0.62 0.60 0.60 0.60 0.58 0.52 0.48 0.44 0.40 0.37 0.37 0.37 0.37 0.35 0.33 0.33 0.31 0.31 0.29 0.29 0.29 0.29 0.27 0.27 0.27 0.29 0.27 0.27 0.27 0.27 0.27 0.29 0.29 0.29 0.27 0.27 0.27 0.25 0.27 0.27 0.27 0.27 0.27 0.27 0.27 0.27 0.27 0.27 0.27 0.27 0.27 0.29 0.29 0.29 0.29 0.29 0.29 0.29 0.29 0.31 0.31 0.31 0.31 0.33 0.33 0.33 0.33 0.35 0.35
0.68 0.68 0.66 0.66 0.66 0.66 0.66 0.66 0.68 0.70 0.72 0.72 0.70 0.70 0.70 0.68 0.64 0.60 0.58 0.56 0.54 0.52 0.44 0.42 0.40 0.39 0.35 0.33 0.33 0.33 0.33 0.31 0.29 0.29 0.29 0.27 0.27 0.27 0.27 0.25 0.25 0.27 0.27 0.27 0.27 0.27 0.27 0.27 0.27 0.27 0.27 0.27 0.25 0.25 0.25 0.25 0.25 0.27 0.27 0.27 0.27 0.27 0.27 0.27 0.27 0.27 0.29 0.29 0.29 0.31 0.31 0.31 0.31 0.31 0.31 0.31 0.31 0.31 0.31 0.31 0.31 0.31 0.31 0.33 0.33 0.33
0.66 0.66 0.66 0.66 0.64 0.66 0.66 0.66 0.68 0.70 0.70 0.70 0.68 0.66 0.66 0.66 0.62 0.58 0.54 0.50 0.48 0.46 0.39 0.39 0.37 0.35 0.31 0.31 0.29 0.29 0.29 0.27 0.27 0.25 0.27 0.25 0.25 0.25 0.25 0.25 0.25 0.25 0.25 0.25 0.25 0.27 0.27 0.27 0.27 0.27 0.27 0.25 0.25 0.25 0.25 0.25 0.25 0.25 0.25 0.25 0.27 0.27 0.27 0.27 0.27 0.29 0.29 0.29 0.31 0.31 0.33 0.33 0.33 0.33 0.31 0.33 0.33 0.31 0.31 0.31 0.31 0.31 0.31 0.31 0.31 0.31
0.66 0.66 0.66 0.66 0.64 0.64 0.66 0.66 0.66 0.68 0.68 0.68 0.66 0.64 0.62 0.62 0.58 0.54 0.50 0.46 0.42 0.40 0.37 0.35 0.33 0.33 0.29 0.29 0.27 0.27 0.27 0.25 0.25 0.25 0.25 0.25 0.25 0.25 0.25 0.23 0.23 0.23 0.25 0.23 0.25 0.25 0.27 0.25 0.25 0.25 0.25 0.25 0.25 0.25 0.25 0.23 0.25 0.25 0.25 0.25 0.27 0.27 0.29 0.29 0.29 0.29 0.31 0.31 0.31 0.33 0.33 0.33 0.33 0.35 0.35 0.35 0.35 0.33 0.33 0.33 0.31 0.31 0.31 0.31 0.31 0.31
0.66 0.66 0.64 0.64 0.64 0.66 0.66 0.66 0.66 0.66 0.66 0.66 0.66 0.64 0.62 0.60 0.54 0.46 0.42 0.40 0.39 0.37 0.33 0.31 0.31 0.29 0.27 0.27 0.27 0.27 0.25 0.25 0.25 0.25 0.25 0.25 0.25 0.25 0.25 0.23 0.23 0.23 0.23 0.23 0.23 0.23 0.25 0.25 0.25 0.25 0.25 0.25 0.23 0.23 0.23 0.25 0.25 0.25 0.27 0.29 0.29 0.29 0.31 0.31 0.31 0.31 0.31 0.31 0.31 0.33 0.33 0.33 0.35 0.35 0.35 0.35 0.35 0.35 0.35 0.35 0.33 0.33 0.33 0.33 0.33 0.33
0.66 0.66 0.64 0.64 0.64 0.64 0.66 0.66 0.66 0.66 0.66 0.64 0.62 0.60 0.58 0.56 0.50 0.42 0.40 0.37 0.35 0.33 0.29 0.29 0.27 0.27 0.25 0.27 0.27 0.27 0.25 0.25 0.25 0.23 0.23 0.23 0.25 0.25 0.25 0.25 0.23 0.23 0.23 0.23 0.23 0.23 0.25 0.23 0.23 0.23 0.23 0.23 0.23 0.23 0.23 0.25 0.27 0.27 0.29 0.31 0.31 0.31 0.33 0.33 0.31 0.31 0.33 0.33 0.33 0.33 0.33 0.35 0.35 0.35 0.35 0.35 0.35 0.35 0.35 0.35 0.35 0.35 0.35 0.35 0.33 0.33
0.66 0.66 0.66 0.64 0.64 0.66 0.66 0.68 0.68 0.66 0.64 0.58 0.56 0.54 0.50 0.48 0.42 0.39 0.37 0.33 0.33 0.31 0.27 0.25 0.25 0.25 0.25 0.27 0.27 0.27 0.25 0.25 0.25 0.23 0.23 0.23 0.25 0.25 0.25 0.25 0.25 0.23 0.23 0.23 0.23 0.23 0.23 0.23 0.23 0.23 0.23 0.23 0.25 0.25 0.25 0.27 0.29 0.29 0.31 0.31 0.31 0.33 0.33 0.33 0.33 0.33 0.33 0.33 0.33 0.33 0.33 0.35 0.35 0.35 0.37 0.37 0.37 0.37 0.35 0.35 0.35 0.35 0.35 0.35 0.35 0.35
0.68 0.66 0.66 0.66 0.66 0.66 0.66 0.66 0.66 0.64 0.62 0.54 0.50 0.48 0.42 0.40 0.39 0.35 0.33 0.31 0.29 0.27 0.25 0.23 0.23 0.21 0.21 0.23 0.25 0.27 0.27 0.25 0.25 0.25 0.23 0.23 0.25 0.25 0.25 0.25 0.23 0.23 0.23 0.23 0.23 0.23 0.23 0.23 0.23 0.23 0.23 0.25 0.25 0.25 0.27 0.29 0.31 0.31 0.31 0.33 0.33 0.33 0.33 0.33 0.33 0.33 0.33 0.33 0.33 0.35 0.35 0.35 0.35 0.37 0.37 0.37 0.37 0.37 0.37 0.37 0.37 0.37 0.37 0.37 0.37 0.37
0.68 0.68 0.66 0.66 0.66 0.64 0.60 0.60 0.58 0.56 0.54 0.46 0.42 0.42 0.40 0.39 0.37 0.33 0.31 0.29 0.27 0.25 0.23 0.23 0.21 0.21 0.19 0.21 0.23 0.25 0.27 0.27 0.25 0.25 0.25 0.23 0.23 0.25 0.25 0.25 0.23 0.23 0.23 0.23 0.23 0.23 0.23 0.23 0.25 0.25 0.25 0.25 0.27 0.29 0.29 0.29 0.31 0.31 0.31 0.33 0.33 0.33 0.35 0.35 0.35 0.33 0.33 0.35 0.35 0.35 0.35 0.37 0.37 0.37 0.37 0.37 0.37 0.37 0.37 0.39 0.37 0.37 0.39 0.37 0.39 0.39
0.68 0.68 0.66 0.66 0.64 0.60 0.52 0.50 0.48 0.46 0.46 0.40 0.39 0.37 0.35 0.35 0.31 0.29 0.29 0.27 0.27 0.25 0.23 0.23 0.21 0.21 0.21 0.21 0.23 0.27 0.27 0.27 0.25 0.23 0.23 0.23 0.23 0.25 0.25 0.25 0.23 0.23 0.23 0.23 0.23 0.23 0.23 0.25 0.25 0.25 0.25 0.27 0.27 0.29 0.29 0.31 0.31 0.31 0.33 0.33 0.33 0.35 0.35 0.35 0.35 0.35 0.35 0.35 0.35 0.35 0.37 0.37 0.37 0.37 0.37 0.37 0.39 0.39 0.39 0.39 0.39 0.39 0.39 0.39 0.39 0.39
0.64 0.60 0.60 0.58 0.56 0.54 0.46 0.44 0.44 0.42 0.40 0.37 0.35 0.33 0.31 0.29 0.27 0.25 0.25 0.25 0.25 0.23 0.23 0.23 0.23 0.23 0.23 0.23 0.25 0.27 0.27 0.25 0.25 0.23 0.23 0.21 0.23 0.23 0.25 0.23 0.23 0.23 0.21 0.23 0.23 0.23 0.25 0.25 0.25 0.25 0.25 0.27 0.27 0.29 0.29 0.29 0.31 0.33 0.33 0.35 0.35 0.35 0.35 0.35 0.35 0.35 0.35 0.37 0.37 0.37 0.37 0.37 0.37 0.39 0.39 0.39 0.39 0.39 0.40 0.40 0.40 0.40 0.40 0.40 0.40 0.40
0.58 0.54 0.54 0.52 0.50 0.46 0.40 0.40 0.40 0.40 0.39 0.35 0.31 0.29 0.27 0.27 0.25 0.23 0.23 0.23 0.23 0.23 0.23 0.23 0.23 0.23 0.23 0.23 0.23 0.25 0.27 0.27 0.25 0.23 0.23 0.23 0.23 0.23 0.23 0.23 0.23 0.23 0.21 0.23 0.25 0.25 0.25 0.25 0.27 0.27 0.27 0.27 0.29 0.29 0.29 0.31 0.31 0.31 0.33 0.35 0.35 0.35 0.35 0.35 0.35 0.35 0.37 0.37 0.37 0.37 0.39 0.39 0.39 0.39 0.39 0.39 0.39 0.39 0.40 0.40 0.42 0.42 0.40 0.42 0.40 0.40
0.54 0.50 0.50 0.48 0.46 0.42 0.39 0.37 0.37 0.37 0.35 0.31 0.27 0.27 0.25 0.25 0.23 0.23 0.23 0.23 0.23 0.23 0.23 0.23 0.23 0.25 0.27 0.25 0.27 0.27 0.29 0.27 0.27 0.25 0.23 0.23 0.21 0.23 0.23 0.25 0.25 0.25 0.23 0.25 0.25 0.25 0.27 0.27 0.27 0.27 0.27 0.29 0.31 0.31 0.31 0.31 0.33 0.33 0.35 0.35 0.35 0.35 0.35 0.35 0.35 0.37 0.37 0.37 0.39 0.39 0.39 0.39 0.39 0.39 0.39 0.39 0.39 0.39 0.40 0.40 0.40 0.42 0.42 0.42 0.42 0.42
0.50 0.48 0.48 0.46 0.42 0.39 0.35 0.33 0.33 0.33 0.31 0.29 0.27 0.27 0.25 0.25 0.25 0.25 0.25 0.25 0.25 0.25 0.25 0.25 0.25 0.27 0.29 0.29 0.29 0.29 0.29 0.29 0.27 0.27 0.25 0.23 0.23 0.25 0.25 0.27 0.27 0.25 0.25 0.27 0.27 0.27 0.27 0.29 0.29 0.29 0.29 0.29 0.31 0.31 0.31 0.33 0.33 0.33 0.35 0.35 0.35 0.35 0.35 0.37 0.37 0.37 0.39 0.39 0.39 0.39 0.39 0.39 0.39 0.39 0.39 0.39 0.39 0.40 0.40 0.40 0.40 0.40 0.42 0.42 0.42 0.44
0.42 0.42 0.40 0.39 0.39 0.35 0.31 0.31 0.31 0.31 0.29 0.29 0.29 0.27 0.27 0.27 0.27 0.27 0.27 0.27 0.27 0.29 0.29 0.29 0.29 0.29 0.29 0.29 0.29 0.29 0.29 0.31 0.31 0.29 0.27 0.25 0.25 0.27 0.27 0.27 0.27 0.27 0.27 0.29 0.29 0.29 0.29 0.29 0.31 0.31 0.31 0.31 0.31 0.31 0.31 0.35 0.35 0.37 0.37 0.37 0.35 0.35 0.37 0.37 0.37 0.39 0.39 0.39 0.39 0.39 0.39 0.39 0.39 0.39 0.40 0.39 0.40 0.40 0.40 0.40 0.40 0.40 0.40 0.40 0.42 0.42
0.35 0.35 0.33 0.33 0.33 0.31 0.29 0.29 0.29 0.29 0.29 0.29 0.29 0.29 0.29 0.29 0.29 0.29 0.29 0.29 0.29 0.29 0.29 0.29 0.29 0.27 0.27 0.27 0.29 0.29 0.31 0.31 0.31 0.31 0.29 0.27 0.27 0.27 0.29 0.29 0.29 0.29 0.27 0.29 0.31 0.31 0.31 0.31 0.31 0.31 0.31 0.33 0.33 0.33 0.33 0.37 0.37 0.37 0.37 0.37 0.37 0.37 0.37 0.37 0.39 0.39 0.39 0.39 0.39 0.39 0.39 0.39 0.39 0.39 0.40 0.40 0.40 0.40 0.40 0.40 0.40 0.40 0.40 0.40 0.40 0.42
0.31 0.31 0.31 0.31 0.31 0.31 0.31 0.31 0.31 0.31 0.29 0.31 0.31 0.31 0.31 0.31 0.31 0.31 0.31 0.31 0.31 0.31 0.29 0.29 0.27 0.27 0.29 0.29 0.29 0.29 0.31 0.33 0.33 0.31 0.31 0.29 0.29 0.29 0.29 0.31 0.31 0.31 0.29 0.31 0.33 0.33 0.33 0.31 0.33 0.33 0.33 0.33 0.33 0.35 0.35 0.37 0.39 0.37 0.37 0.37 0.37 0.37 0.37 0.37 0.37 0.37 0.39 0.39 0.39 0.39 0.39 0.39 0.39 0.39 0.39 0.39 0.39 0.40 0.40 0.40 0.40 0.40 0.40 0.40 0.40 0.40
0.31 0.31 0.31 0.31 0.31 0.31 0.31 0.31 0.31 0.31 0.31 0.33 0.33 0.33 0.31 0.31 0.31 0.31 0.31 0.31 0.31 0.31 0.31 0.29 0.29 0.27 0.29 0.29 0.29 0.29 0.31 0.33 0.33 0.33 0.33 0.33 0.31 0.31 0.31 0.33 0.33 0.31 0.31 0.33 0.33 0.33 0.33 0.33 0.33 0.33 0.33 0.33 0.35 0.37 0.37 0.39 0.39 0.37 0.37 0.37 0.37 0.37 0.37 0.37 0.37 0.37 0.39 0.39 0.39 0.39 0.39 0.39 0.39 0.39 0.39 0.39 0.39 0.40 0.40 0.40 0.40 0.40 0.40 0.40 0.40 0.40
0.33 0.31 0.31 0.31 0.33 0.33 0.33 0.33 0.33 0.33 0.33 0.35 0.35 0.35 0.35 0.33 0.31 0.31 0.31 0.31 0.31 0.31 0.29 0.29 0.29 0.27 0.29 0.29 0.29 0.31 0.33 0.33 0.35 0.35 0.35 0.35 0.33 0.31 0.31 0.33 0.33 0.33 0.33 0.33 0.33 0.33 0.33 0.33 0.33 0.33 0.33 0.35 0.35 0.37 0.37 0.37 0.37 0.37 0.37 0.37 0.37 0.37 0.37 0.37 0.37 0.37 0.39 0.39 0.39 0.39 0.39 0.39 0.39 0.39 0.39 0.39 0.39 0.39 0.40 0.40 0.40 0.40 0.40 0.40 0.40 0.40
0.35 0.35 0.35 0.35 0.35 0.35 0.35 0.35 0.35 0.35 0.35 0.37 0.37 0.37 0.37 0.35 0.35 0.33 0.33 0.33 0.33 0.31 0.31 0.29 0.29 0.29 0.29 0.29 0.31 0.31 0.31 0.33 0.35 0.35 0.37 0.33 0.33 0.31 0.33 0.33 0.33 0.33 0.33 0.33 0.33 0.33 0.33 0.35 0.35 0.35 0.35 0.35 0.35 0.35 0.37 0.37 0.37 0.37 0.37 0.37 0.37 0.37 0.37 0.37 0.37 0.37 0.39 0.39 0.39 0.39 0.39 0.39 0.39 0.39 0.40 0.39 0.39 0.39 0.39 0.40 0.40 0.40 0.40 0.40 0.40 0.40
0.35 0.35 0.35 0.35 0.37 0.37 0.37 0.37 0.37 0.39 0.39 0.39 0.39 0.39 0.37 0.37 0.37 0.35 0.35 0.35 0.33 0.33 0.31 0.31 0.29 0.29 0.29 0.29 0.29 0.29 0.29 0.31 0.33 0.35 0.37 0.33 0.33 0.31 0.33 0.33 0.33 0.33 0.33 0.33 0.33 0.33 0.33 0.35 0.37 0.37 0.35 0.37 0.37 0.37 0.37 0.37 0.37 0.37 0.35 0.35 0.35 0.37 0.37 0.37 0.37 0.37 0.39 0.39 0.39 0.39 0.39 0.39 0.39 0.40 0.40 0.40 0.40 0.39 0.40 0.40 0.40 0.40 0.40 0.40 0.40 0.39
0.33 0.33 0.35 0.35 0.35 0.37 0.37 0.37 0.39 0.39 0.40 0.40 0.40 0.40 0.39 0.39 0.37 0.37 0.35 0.35 0.35 0.33 0.31 0.31 0.31 0.29 0.29 0.29 0.29 0.27 0.27 0.31 0.33 0.35 0.37 0.35 0.33 0.33 0.33 0.33 0.33 0.33 0.35 0.33 0.33 0.31 0.31 0.33 0.35 0.37 0.37 0.37 0.37 0.37 0.37 0.37 0.37 0.37 0.35 0.35 0.35 0.35 0.35 0.35 0.37 0.37 0.37 0.37 0.37 0.39 0.39 0.39 0.39 0.39 0.39 0.39 0.39 0.39 0.40 0.40 0.40 0.40 0.40 0.40 0.39 0.39
0.33 0.33 0.33 0.35 0.35 0.37 0.37 0.37 0.39 0.39 0.40 0.40 0.40 0.40 0.40 0.39 0.39 0.39 0.37 0.37 0.35 0.33 0.31 0.31 0.31 0.29 0.29 0.29 0.27 0.27 0.29 0.33 0.35 0.37 0.35 0.33 0.33 0.33 0.33 0.33 0.33 0.33 0.35 0.33 0.33 0.31 0.31 0.31 0.33 0.35 0.37 0.37 0.37 0.37 0.37 0.37 0.37 0.37 0.35 0.35 0.33 0.35 0.35 0.35 0.37 0.37 0.37 0.37 0.37 0.37 0.37 0.39 0.39 0.39 0.39 0.39 0.39 0.40 0.40 0.40 0.40 0.40 0.40 0.40 0.39 0.39
0.33 0.33 0.35 0.35 0.35 0.37 0.37 0.37 0.39 0.39 0.39 0.39 0.39 0.40 0.40 0.39 0.39 0.39 0.39 0.37 0.37 0.35 0.33 0.31 0.31 0.31 0.29 0.29 0.29 0.29 0.31 0.33 0.33 0.35 0.37 0.35 0.33 0.33 0.33 0.33 0.31 0.33 0.33 0.33 0.33 0.33 0.31 0.33 0.33 0.35 0.37 0.37 0.37 0.37 0.37 0.37 0.37 0.35 0.35 0.33 0.33 0.33 0.35 0.35 0.35 0.35 0.37 0.37 0.37 0.37 0.37 0.37 0.39 0.39 0.39 0.39 0.39 0.40 0.40 0.40 0.40 0.42 0.40 0.40 0.39 0.39
0.33 0.33 0.33 0.35 0.35 0.35 0.37 0.37 0.39 0.39 0.39 0.39 0.39 0.39 0.39 0.39 0.39 0.37 0.37 0.37 0.37 0.35 0.35 0.33 0.31 0.31 0.31 0.29 0.29 0.29 0.31 0.33 0.33 0.35 0.37 0.35 0.33 0.31 0.31 0.31 0.31 0.31 0.31 0.31 0.33 0.33 0.33 0.33 0.33 0.35 0.35 0.35 0.35 0.35 0.37 0.37 0.35 0.35 0.35 0.33 0.33 0.33 0.33 0.35 0.35 0.35 0.35 0.35 0.35 0.37 0.37 0.37 0.37 0.39 0.39 0.39 0.39 0.40 0.40 0.40 0.42 0.42 0.42 0.40 0.40 0.39
0.33 0.33 0.33 0.33 0.35 0.35 0.35 0.37 0.37 0.37 0.37 0.37 0.37 0.37 0.37 0.37 0.37 0.37 0.37 0.37 0.37 0.35 0.35 0.33 0.33 0.31 0.31 0.31 0.29 0.29 0.31 0.33 0.35 0.35 0.37 0.35 0.33 0.33 0.31 0.31 0.31 0.31 0.31 0.33 0.33 0.33 0.33 0.33 0.35 0.35 0.33 0.35 0.35 0.35 0.35 0.35 0.35 0.35 0.35 0.33 0.33 0.33 0.35 0.35 0.35 0.35 0.35 0.35 0.35 0.37 0.37 0.37 0.39 0.39 0.39 0.40 0.40 0.40 0.40 0.42 0.42 0.42 0.42 0.42 0.40 0.40
0.33 0.33 0.33 0.33 0.35 0.35 0.35 0.35 0.35 0.37 0.35 0.35 0.37 0.37 0.37 0.37 0.35 0.37 0.37 0.37 0.37 0.37 0.37 0.35 0.35 0.35 0.35 0.33 0.33 0.33 0.35 0.35 0.35 0.37 0.37 0.37 0.35 0.33 0.33 0.33 0.35 0.33 0.33 0.33 0.35 0.33 0.33 0.33 0.35 0.35 0.33 0.33 0.33 0.33 0.33 0.33 0.33 0.33 0.33 0.33 0.33 0.33 0.33 0.35 0.35 0.35 0.35 0.35 0.35 0.35 0.37 0.37 0.39 0.39 0.39 0.40 0.40 0.40 0.40 0.42 0.42 0.42 0.42 0.42 0.42 0.40
0.33 0.33 0.35 0.35 0.35 0.35 0.35 0.35 0.35 0.35 0.35 0.35 0.35 0.35 0.35 0.35 0.35 0.35 0.35 0.37 0.37 0.37 0.37 0.37 0.37 0.37 0.39 0.37 0.37 0.37 0.39 0.39 0.39 0.39 0.39 0.39 0.39 0.37 0.35 0.37 0.37 0.37 0.35 0.35 0.35 0.35 0.35 0.35 0.35 0.33 0.33 0.33 0.33 0.31 0.31 0.33 0.33 0.33 0.33 0.33 0.33 0.33 0.33 0.35 0.35 0.35 0.35 0.35 0.35 0.37 0.37 0.37 0.39 0.39 0.39 0.40 0.40 0.40 0.40 0.40 0.40 0.40 0.40 0.40 0.40 0.40
0.33 0.35 0.35 0.35 0.35 0.35 0.35 0.35 0.35 0.35 0.35 0.35 0.35 0.35 0.35 0.35 0.35 0.35 0.35 0.35 0.37 0.37 0.37 0.37 0.37 0.39 0.40 0.40 0.40 0.40 0.40 0.40 0.40 0.40 0.40 0.40 0.40 0.39 0.37 0.37 0.37 0.37 0.37 0.37 0.37 0.37 0.35 0.35 0.33 0.33 0.33 0.33 0.33 0.33 0.31 0.33 0.31 0.31 0.33 0.33 0.33 0.33 0.33 0.35 0.35 0.35 0.35 0.35 0.37 0.37 0.37 0.37 0.39 0.39 0.39 0.39 0.39 0.39 0.39 0.39 0.39 0.40 0.39 0.39 0.39 0.39
0.33 0.33 0.35 0.35 0.35 0.35 0.35 0.35 0.35 0.35 0.35 0.35 0.35 0.35 0.35 0.35 0.35 0.35 0.35 0.35 0.37 0.37 0.37 0.39 0.39 0.39 0.40 0.40 0.40 0.40 0.40 0.40 0.40 0.40 0.40 0.40 0.40 0.39 0.39 0.37 0.37 0.37 0.37 0.37 0.37 0.37 0.35 0.35 0.35 0.33 0.33 0.33 0.33 0.33 0.33 0.33 0.31 0.31 0.31 0.31 0.31 0.33 0.33 0.35 0.35 0.37 0.37 0.37 0.37 0.37 0.37 0.37 0.39 0.39 0.39 0.39 0.39 0.39 0.39 0.39 0.39 0.39 0.39 0.39 0.39 0.39
0.33 0.33 0.33 0.35 0.35 0.35 0.35 0.35 0.35 0.35 0.35 0.35 0.35 0.35 0.35 0.35 0.35 0.35 0.35 0.37 0.37 0.37 0.37 0.37 0.39 0.39 0.39 0.40 0.40 0.40 0.40 0.40 0.40 0.40 0.40 0.40 0.40 0.40 0.39 0.39 0.39 0.39 0.39 0.37 0.37 0.37 0.37 0.35 0.35 0.35 0.35 0.33 0.33 0.33 0.31 0.31 0.31 0.31 0.31 0.31 0.31 0.31 0.33 0.35 0.37 0.37 0.37 0.37 0.37 0.37 0.37 0.37 0.39 0.39 0.39 0.39 0.39 0.39 0.39 0.39 0.39 0.39 0.39 0.39 0.37 0.37
0.33 0.33 0.33 0.35 0.35 0.35 0.35 0.35 0.35 0.35 0.35 0.35 0.35 0.35 0.35 0.35 0.35 0.35 0.35 0.35 0.35 0.35 0.35 0.37 0.37 0.39 0.37 0.39 0.39 0.39 0.39 0.39 0.39 0.40 0.40 0.40 0.40 0.40 0.40 0.39 0.39 0.39 0.39 0.37 0.37 0.37 0.37 0.37 0.35 0.35 0.35 0.35 0.33 0.33 0.33 0.31 0.31 0.31 0.31 0.29 0.31 0.33 0.35 0.35 0.37 0.37 0.37 0.37 0.37 0.37 0.37 0.37 0.37 0.39 0.39 0.39 0.39 0.39 0.39 0.39 0.39 0.39 0.39 0.37 0.37 0.35
0.33 0.33 0.33 0.35 0.35 0.35 0.35 0.35 0.35 0.35 0.35 0.35 0.35 0.35 0.35 0.33 0.33 0.33 0.33 0.33 0.33 0.35 0.35 0.37 0.37 0.37 0.37 0.37 0.37 0.37 0.37 0.37 0.39 0.39 0.39 0.39 0.40 0.40 0.40 0.40 0.39 0.39 0.39 0.37 0.37 0.37 0.37 0.37 0.37 0.37 0.37 0.35 0.35 0.35 0.33 0.33 0.33 0.33 0.31 0.31 0.31 0.33 0.33 0.35 0.35 0.37 0.37 0.37 0.37 0.37 0.37 0.37 0.37 0.37 0.39 0.39 0.39 0.39 0.39 0.39 0.39 0.39 0.37 0.37 0.37 0.37
0.35 0.35 0.35 0.35 0.35 0.35 0.35 0.35 0.35 0.35 0.35 0.35 0.35 0.35 0.33 0.33 0.33 0.33 0.33 0.33 0.35 0.35 0.35 0.35 0.37 0.37 0.35 0.35 0.35 0.35 0.35 0.35 0.37 0.37 0.39 0.39 0.39 0.39 0.40 0.40 0.40 0.40 0.40 0.39 0.39 0.39 0.39 0.39 0.37 0.37 0.37 0.37 0.37 0.35 0.35 0.33 0.33 0.33 0.33 0.31 0.33 0.33 0.31 0.33 0.35 0.35 0.37 0.37 0.37 0.37 0.37 0.37 0.37 0.39 0.39 0.39 0.39 0.39 0.39 0.39 0.39 0.39 0.39 0.37 0.37 0.37
0.37 0.37 0.37 0.37 0.37 0.37 0.37 0.37 0.35 0.35 0.35 0.35 0.35 0.35 0.33 0.35 0.37 0.37 0.35 0.35 0.37 0.37 0.37 0.37 0.37 0.37 0.35 0.35 0.33 0.33 0.35 0.37 0.37 0.37 0.39 0.39 0.39 0.39 0.40 0.40 0.40 0.40 0.40 0.39 0.39 0.39 0.39 0.39 0.39 0.37 0.37 0.37 0.37 0.35 0.35 0.33 0.33 0.33 0.33 0.33 0.33 0.33 0.33 0.31 0.33 0.35 0.35 0.35 0.37 0.37 0.37 0.37 0.37 0.39 0.39 0.39 0.39 0.39 0.39 0.39 0.37 0.37 0.37 0.37 0.37 0.35
0.39 0.39 0.37 0.37 0.37 0.37 0.37 0.35 0.37 0.37 0.37 0.37 0.35 0.35 0.37 0.37 0.39 0.37 0.37 0.37 0.37 0.37 0.37 0.37 0.37 0.37 0.35 0.33 0.33 0.33 0.35 0.35 0.37 0.37 0.39 0.39 0.40 0.40 0.40 0.40 0.40 0.40 0.40 0.39 0.39 0.39 0.39 0.39 0.39 0.39 0.39 0.39 0.37 0.37 0.35 0.35 0.33 0.33 0.33 0.33 0.33 0.35 0.35 0.35 0.35 0.35 0.35 0.35 0.37 0.37 0.37 0.37 0.37 0.37 0.37 0.37 0.37 0.37 0.37 0.37 0.37 0.37 0.37 0.37 0.37 0.35
0.37 0.37 0.37 0.37 0.37 0.37 0.37 0.37 0.39 0.39 0.39 0.39 0.39 0.39 0.39 0.39 0.39 0.37 0.37 0.37 0.37 0.39 0.39 0.39 0.37 0.35 0.33 0.33 0.33 0.33 0.33 0.35 0.35 0.37 0.37 0.37 0.39 0.39 0.40 0.40 0.40 0.40 0.40 0.40 0.40 0.40 0.39 0.39 0.39 0.39 0.39 0.39 0.37 0.35 0.35 0.35 0.33 0.33 0.33 0.33 0.33 0.35 0.35 0.35 0.35 0.35 0.35 0.35 0.37 0.37 0.37 0.37 0.37 0.37 0.37 0.37 0.37 0.37 0.37 0.37 0.37 0.37 0.37 0.35 0.35 0.33
0.37 0.37 0.37 0.39 0.39 0.39 0.40 0.40 0.40 0.40 0.40 0.39 0.39 0.39 0.39 0.39 0.39 0.39 0.39 0.39 0.39 0.39 0.37 0.37 0.37 0.35 0.35 0.33 0.33 0.33 0.33 0.33 0.33 0.35 0.35 0.37 0.37 0.39 0.40 0.40 0.40 0.40 0.40 0.40 0.40 0.40 0.40 0.39 0.39 0.39 0.39 0.37 0.35 0.35 0.35 0.35 0.33 0.33 0.33 0.33 0.33 0.33 0.33 0.33 0.35 0.37 0.37 0.37 0.37 0.37 0.37 0.39 0.37 0.37 0.37 0.37 0.37 0.37 0.37 0.37 0.37 0.37 0.35 0.35 0.35 0.33
0.39 0.39 0.39 0.40 0.42 0.42 0.42 0.42 0.42 0.40 0.40 0.40 0.40 0.40 0.40 0.40 0.40 0.40 0.39 0.39 0.39 0.39 0.39 0.37 0.37 0.35 0.35 0.35 0.35 0.33 0.35 0.33 0.33 0.35 0.35 0.37 0.37 0.39 0.39 0.39 0.40 0.40 0.40 0.40 0.40 0.40 0.40 0.40 0.40 0.39 0.39 0.37 0.37 0.35 0.33 0.35 0.33 0.33 0.33 0.33 0.33 0.33 0.33 0.35 0.35 0.37 0.37 0.37 0.37 0.39 0.39 0.37 0.37 0.37 0.37 0.35 0.35 0.35 0.35 0.35 0.35 0.35 0.35 0.33 0.33 0.31
0.42 0.42 0.42 0.42 0.42 0.42 0.42 0.42 0.42 0.42 0.40 0.40 0.40 0.40 0.42 0.42 0.42 0.40 0.40 0.40 0.39 0.39 0.39 0.37 0.37 0.35 0.35 0.35 0.35 0.35 0.35 0.35 0.35 0.35 0.35 0.37 0.37 0.37 0.37 0.37 0.37 0.39 0.39 0.39 0.39 0.39 0.40 0.40 0.40 0.40 0.40 0.39 0.37 0.35 0.33 0.33 0.33 0.35 0.35 0.35 0.33 0.33 0.33 0.35 0.35 0.37 0.37 0.37 0.37 0.39 0.39 0.39 0.37 0.37 0.35 0.35 0.33 0.33 0.33 0.33 0.33 0.33 0.33 0.33 0.31 0.31
0.44 0.42 0.42 0.42 0.42 0.42 0.42 0.42 0.42 0.42 0.42 0.42 0.42 0.42 0.42 0.42 0.42 0.42 0.42 0.40 0.39 0.39 0.39 0.37 0.37 0.37 0.37 0.35 0.35 0.35 0.37 0.37 0.37 0.35 0.35 0.35 0.37 0.37 0.37 0.35 0.35 0.37 0.37 0.37 0.39 0.39 0.39 0.39 0.40 0.40 0.40 0.39 0.37 0.37 0.35 0.35 0.33 0.33 0.33 0.33 0.33 0.33 0.33 0.35 0.35 0.37 0.37 0.37 0.37 0.37 0.37 0.37 0.37 0.35 0.35 0.33 0.33 0.31 0.31 0.29 0.29 0.31 0.31 0.31 0.31 0.31
0.44 0.44 0.44 0.44 0.44 0.44 0.44 0.44 0.44 0.44 0.42 0.42 0.42 0.42 0.42 0.40 0.40 0.40 0.40 0.40 0.39 0.39 0.39 0.37 0.37 0.37 0.37 0.37 0.37 0.37 0.37 0.37 0.37 0.35 0.35 0.35 0.35 0.35 0.35 0.35 0.35 0.35 0.35 0.35 0.35 0.35 0.35 0.37 0.37 0.35 0.37 0.39 0.39 0.39 0.37 0.35 0.33 0.33 0.33 0.33 0.33 0.35 0.35 0.35 0.35 0.37 0.37 0.37 0.37 0.37 0.35 0.35 0.35 0.33 0.33 0.33 0.31 0.29 0.29 0.27 0.29 0.29 0.31 0.29 0.29 0.29
Wind_Speed
26 26 26 26 26 26 26 26 25 25 24 24 25 25 25 25 25 24 24 23 23 22 22 21 20 20 19 19 18 18 17 16 16 15 15 15 14 14 14 13 13 13 13 13 12 12 12 12 12 12 12 13 13 13 13 13 13 13 13 13 13 13 13 14 14 14 14 14 14 14 14 14 14 14 14 14 14 14 14 14 14 14 14 14 14 13
25 25 26 26 26 25 25 25 24 24 24 25 25 25 25 24 24 24 24 23 22 22 21 21 20 19 19 19 18 17 17 16 15 15 15 14 14 14 14 13 13 13 13 13 13 13 13 13 13 13 13 13 13 13 13 13 13 14 14 14 14 14 14 14 14 14 15 15 15 15 15 15 15 15 14 14 14 14 14 14 14 14 14 14 14 14
25 25 25 25 24 24 23 23 23 24 24 25 25 25 25 24 24 24 23 22 22 21 21 20 19 19 19 18 18 17 16 15 15 15 15 14 14 14 14 14 14 14 14 14 14 14 14 14 14 14 14 14 14 14 14 14 14 14 14 14 15 15 15 15 15 15 15 15 15 15 15 15 15 15 15 15 15 15 15 15 15 15 14 14 14 14
25 25 25 24 23 23 22 22 23 24 24 25 25 25 24 24 24 23 22 22 21 21 20 19 19 19 18 18 17 16 15 15 15 15 14 14 14 14 14 14 14 14 14 14 14 14 14 14 14 14 14 15 15 15 15 15 15 15 15 15 15 15 15 15 15 15 16 16 16 16 15 15 15 15 15 15 15 15 15 15 15 15 15 15 15 15
25 24 24 23 23 23 23 23 24 24 25 25 25 25 24 24 23 23 22 21 21 20 19 19 19 18 18 17 16 15 15 15 15 14 14 14 14 15 15 15 15 15 15 15 15 15 15 15 15 15 15 15 15 15 15 15 15 15 15 15 15 15 15 15 15 16 16 16 16 16 16 16 16 15 15 15 15 15 15 15 15 15 15 15 15 15
24 24 24 24 24 24 24 25 25 26 26 26 26 25 24 24 23 22 22 21 20 19 19 19 18 17 17 16 15 14 14 14 14 14 14 14 15 15 15 15 15 15 15 15 15 15 15 15 15 16 16 16 16 16 15 15 15 15 15 15 15 15 15 15 16 16 16 16 16 16 16 16 16 16 16 16 16 16 15 15 15 15 15 15 15 15
25 25 25 25 25 26 26 26 27 27 27 26 26 25 24 23 22 22 21 20 20 19 19 18 18 17 16 15 14 14 14 14 15 15 15 15 15 15 15 15 15 15 15 15 15 15 16 16 16 16 16 16 16 15 15 15 15 15 15 15 15 15 15 15 16 16 16 16 16 16 16 16 16 16 16 16 16 16 16 16 15 15 15 15 15 15
25 26 26 26 27 27 27 27 27 27 27 26 25 24 23 22 22 21 21 20 19 19 19 18 17 16 15 14 14 14 14 15 15 15 15 15 15 15 15 15 16 16 16 16 16 16 16 16 16 16 16 15 15 15 15 15 15 15 15 15 15 15 16 16 16 16 16 16 16 16 16 16 16 16 16 16 16 16 16 16 16 16 15 15 15 15
25 26 27 27 27 27 27 27 27 27 26 25 24 23 22 22 21 21 20 20 19 19 19 18 17 16 15 14 14 15 15 15 15 15 15 15 16 16 16 16 16 16 16 16 16 16 16 16 16 16 15 15 15 15 15 15 15 15 15 15 15 16 16 16 16 16 16 16 16 16 16 16 16 16 16 16 16 16 16 16 16 16 16 16 15 15
26 26 26 27 27 27 27 26 26 26 25 24 23 22 22 21 21 20 20 20 20 19 18 17 16 15 15 15 15 15 15 15 15 15 15 15 16 16 16 16 16 16 16 16 16 16 16 16 16 15 15 15 15 15 15 16 16 16 16 16 16 16 16 16 16 16 16 16 16 16 16 16 16 16 16 16 16 17 17 16 16 16 16 16 16 16
26 26 26 26 26 26 26 25 25 25 24 23 22 22 21 21 20 20 20 20 19 19 18 16 16 15 15 15 15 15 15 15 15 15 15 16 16 16 16 16 16 16 16 16 16 16 16 16 16 16 15 16 16 16 16 16 16 16 16 16 16 16 16 16 16 16 16 16 16 16 16 16 16 16 16 16 17 17 17 17 17 17 16 16 16 16
25 25 25 25 25 25 25 25 24 24 23 22 22 21 21 21 20 20 20 19 19 18 17 16 15 15 15 16 16 16 16 16 16 16 16 16 16 16 16 16 16 16 16 16 16 16 16 16 16 16 16 16 16 16 16 16 16 16 16 16 16 16 16 16 16 16 16 16 16 16 16 16 16 16 16 17 17 17 17 17 17 17 17 17 16 16
25 25 25 25 25 24 24 24 23 23 23 22 22 21 21 20 20 19 19 18 18 17 16 15 15 15 15 16 16 16 16 16 16 16 16 16 16 16 16 16 16 16 16 16 16 16 16 16 16 16 16 16 16 16 16 16 16 16 16 16 16 16 16 16 16 16 16 16 16 16 16 16 16 17 17 17 17 17 17 17 17 17 17 17 17 17
25 25 24 24 24 24 24 23 23 22 22 21 21 21 20 20 19 19 18 17 16 16 15 15 15 15 16 16 16 16 16 17 17 17 17 17 17 17 17 17 16 16 16 16 16 16 16 16 16 16 16 16 16 16 16 16 16 16 16 16 16 16 16 16 16 17 17 17 17 17 17 17 17 17 17 17 17 17 17 17 17 17 17 17 17 17
24 23 23 23 23 23 23 22 22 21 21 20 20 20 19 19 18 18 17 16 15 15 15 15 15 16 16 16 16 16 17 17 17 17 17 17 17 17 17 17 17 16 16 16 16 16 16 16 16 16 16 16 16 16 16 16 16 16 16 16 16 17 17 17 17 17 17 17 17 17 17 17 17 17 17 17 17 17 17 17 17 17 17 17 17 17
23 22 22 22 22 22 21 21 21 20 20 19 19 19 18 18 17 17 16 15 15 15 15 15 15 16 16 17 17 17 17 17 17 17 17 17 17 17 17 17 17 16 16 16 16 16 16 16 16 16 16 16 16 16 16 16 16 16 16 17 17 17 17 17 17 17 17 17 17 17 17 17 17 17 17 17 17 17 17 17 17 17 17 17 17 17
22 21 21 21 20 20 20 20 19 19 19 19 18 18 17 17 16 16 15 15 15 15 15 15 15 15 16 16 17 17 17 17 17 17 17 17 17 17 17 16 16 16 16 16 16 16 16 16 16 16 16 16 16 16 16 16 16 17 17 17 17 17 17 17 17 18 18 18 18 18 18 18 18 18 18 18 18 18 18 18 18 18 18 18 18 18
20 20 20 19 19 19 19 19 18 18 18 18 18 17 17 16 16 15 15 15 15 15 15 15 15 15 16 16 17 17 17 17 17 17 17 17 17 17 17 17 16 16 16 16 16 16 16 16 16 16 16 16 17 17 16 17 17 17 17 17 17 17 18 18 18 18 18 18 18 18 18 18 18 18 18 18 18 18 18 18 18 18 18 18 18 18
19 19 19 18 18 18 18 18 18 18 18 18 17 16 16 15 15 15 15 15 15 15 15 15 15 16 16 16 17 17 17 17 17 17 17 17 17 17 17 17 16 16 16 16 16 16 16 16 16 17 17 17 17 17 17 17 17 17 17 18 18 18 18 18 18 18 18 18 18 18 18 18 18 18 18 18 18 18 18 18 18 18 18 18 18 18
18 18 18 18 18 18 18 18 18 18 17 17 16 16 15 15 15 15 15 15 15 15 15 15 16 16 16 17 17 17 17 17 17 16 17 17 17 17 17 17 16 16 16 16 16 16 16 16 17 17 17 17 17 17 17 17 18 18 18 18 18 18 18 18 19 19 19 18 18 18 18 18 18 18 18 19 19 19 19 19 19 19 19 19 19 19
17 17 18 18 18 18 18 18 18 17 17 16 15 15 15 14 14 14 15 15 15 15 15 16 16 16 16 17 17 17 17 16 16 16 16 16 17 17 17 16 16 16 16 16 16 16 16 17 17 17 17 17 17 18 18 18 18 18 18 18 18 18 18 19 19 19 19 18 18 18 19 19 19 19 19 19 19 19 19 19 19 19 19 19 19 19
17 17 18 18 18 17 17 17 16 16 16 15 15 14 14 14 14 14 15 15 15 15 15 16 16 16 16 16 17 17 17 16 16 16 16 16 16 17 17 16 16 16 16 16 17 17 17 17 17 17 17 18 18 18 18 18 18 18 18 18 18 19 19 19 19 19 19 19 19 19 19 19 19 19 19 19 19 19 19 19 19 19 20 20 20 20
17 18 18 18 17 16 16 15 15 15 15 14 14 14 14 14 14 14 15 15 15 15 15 15 16 16 16 16 16 17 17 16 16 16 16 16 16 16 16 16 16 16 16 17 17 17 17 17 18 18 18 18 18 19 19 19 19 19 19 19 19 19 19 19 19 19 19 19 19 19 19 19 19 19 19 19 19 20 20 20 20 20 20 20 20 20
17 17 17 17 16 16 15 14 14 14 14 14 13 13 13 14 14 14 14 14 15 15 15 15 15 15 16 16 16 16 16 16 16 16 16 16 16 16 16 16 16 16 17 17 17 17 18 18 18 18 18 19 19 19 19 19 19 19 19 19 19 19 19 19 19 19 19 19 19 19 20 20 20 20 20 20 20 20 20 20 20 20 20 20 20 20
16 16 16 16 15 15 14 14 14 14 13 13 13 13 13 13 13 13 14 14 14 15 15 15 15 15 16 16 16 16 16 16 16 16 16 16 16 16 16 16 16 16 17 17 17 18 18 18 18 19 18 19 19 19 19 19 19 19 19 19 19 19 19 19 19 20 20 20 20 20 20 20 20 20 20 20 20 20 20 20 20 21 21 21 21 21
15 15 15 15 14 14 13 13 13 13 13 13 13 13 13 13 13 13 14 14 14 14 14 15 15 15 16 16 16 16 16 16 16 16 16 16 16 16 16 16 16 17 17 17 18 18 18 18 19 19 19 19 19 19 19 19 19 19 19 19 19 19 20 20 20 20 20 20 20 20 20 20 20 20 20 20 20 20 21 21 21 21 21 21 21 21
14 14 14 13 13 13 13 13 13 13 13 13 13 13 13 13 13 14 14 14 14 14 14 14 15 15 15 15 16 16 16 16 16 16 16 16 16 16 16 16 17 17 17 18 18 18 18 18 19 19 19 19 19 19 19 19 19 19 19 19 20 20 20 20 20 20 20 21 21 21 21 21 21 21 21 21 21 21 21 21 21 21 21 21 21 21
13 13 13 12 12 12 12 12 13 13 13 13 13 13 13 13 13 14 14 14 14 14 14 14 15 15 15 15 15 16 16 16 16 16 16 16 16 16 16 17 17 17 17 18 18 18 19 19 19 19 19 19 19 19 19 19 19 19 20 20 20 20 21 21 21 21 21 21 21 21 21 21 21 21 21 21 21 21 21 21 21 21 21 21 21 21
12 12 12 12 12 12 12 12 12 13 13 13 13 13 13 13 14 14 14 14 14 14 14 14 15 15 15 15 15 16 16 16 16 16 16 16 16 17 17 17 17 17 18 18 19 19 19 19 19 20 20 20 20 20 20 20 20 20 20 20 21 21 21 21 21 21 21 21 21 21 21 21 22 22 22 22 22 22 22 22 22 22 22 22 22 22
13 12 12 12 12 12 12 12 12 12 13 13 13 13 13 13 13 14 14 14 14 14 14 15 15 15 15 15 15 16 16 16 16 16 16 16 17 17 17 18 18 18 18 18 19 19 19 20 20 20 20 21 21 21 20 20 20 21 21 21 21 21 21 22 22 22 22 22 22 22 22 22 22 22 22 22 22 22 22 22 22 22 22 22 22 22
13 13 12 12 12 12 12 12 12 12 12 13 13 13 13 13 13 14 14 14 14 14 15 15 15 15 15 15 15 15 16 16 16 16 17 17 17 18 18 18 18 19 19 19 19 19 20 20 20 20 21 21 21 21 21 21 21 21 21 22 22 22 22 22 22 23 23 23 23 23 23 23 23 23 23 23 23 23 23 23 23 23 23 22 22 22
13 13 13 13 13 12 12 12 12 12 12 13 13 13 13 14 14 14 14 15 15 15 15 15 15 16 16 16 16 16 16 16 17 17 17 17 18 18 19 19 19 20 20 20 20 19 20 20 21 21 21 21 22 22 22 22 22 22 22 23 23 23 23 23 23 23 23 23 24 24 24 24 24 24 24 24 24 24 24 23 23 23 23 23 22 22
13 13 13 13 13 13 13 13 13 13 13 13 13 14 14 14 14 15 15 15 15 15 15 16 16 16 16 16 16 17 17 17 18 18 18 18 19 19 20 20 20 20 21 21 21 21 21 21 21 22 22 22 22 22 23 23 23 23 23 23 24 24 24 24 24 24 24 24 24 24 24 25 25 25 25 25 24 24 24 24 23 23 23 23 22 22
13 13 13 13 13 13 13 13 14 14 14 14 14 14 14 15 15 15 15 16 16 16 16 16 16 16 16 17 17 17 18 18 19 19 19 19 20 20 20 21 21 21 21 22 22 22 22 22 22 22 22 23 23 23 23 24 24 24 24 24 24 24 24 24 24 24 25 25 25 25 25 25 25 25 25 25 25 24 24 24 23 23 23 23 23 22
12 13 13 13 13 13 13 14 14 14 14 15 15 15 15 15 15 16 16 16 16 16 16 16 16 17 17 17 18 18 18 19 19 19 20 20 20 21 21 21 21 22 22 22 22 22 22 23 23 23 23 23 24 24 24 25 25 25 25 25 25 25 25 25 25 25 25 25 25 25 25 25 25 25 25 25 24 24 24 24 24 23 23 23 23 23
12 13 13 13 13 13 14 14 14 14 15 15 15 15 16 16 16 16 16 17 17 17 17 17 17 17 17 18 18 18 19 19 20 20 20 20 21 21 21 22 22 22 22 22 23 23 23 23 24 24 24 24 24 24 25 25 25 25 25 26 26 26 26 26 26 26 26 26 26 26 25 25 25 25 25 25 24 24 24 24 24 24 23 23 23 23
12 13 13 13 13 14 14 14 15 15 15 15 16 16 16 16 16 16 17 17 17 17 17 17 18 18 18 19 19 19 20 20 20 20 21 21 21 21 22 22 22 22 22 23 23 23 23 24 24 24 24 25 25 25 25 25 26 26 26 26 26 26 27 27 27 26 26 26 26 26 26 25 25 25 25 25 25 24 24 24 24 24 24 23 23 23
13 13 13 13 13 14 14 14 15 15 15 15 15 16 16 16 16 16 17 17 17 18 18 18 19 19 19 20 20 20 21 21 21 21 21 22 22 22 22 23 23 23 23 23 24 24 24 24 25 25 25 25 26 26 26 26 26 26 26 27 27 27 27 27 27 27 26 26 26 26 26 26 25 25 25 25 25 25 24 24 24 24 24 24 24 24
12 13 13 13 13 13 14 14 14 14 15 15 15 15 15 16 16 16 17 17 18 18 19 19 20 20 20 21 21 21 22 22 22 22 22 23 23 23 23 23 24 24 24 24 24 25 25 25 25 25 25 26 26 26 26 26 26 27 27 27 27 27 27 27 27 27 27 27 26 26 26 26 25 25 25 25 25 24 24 24 24 24 24 24 24 24
12 12 12 13 13 13 13 13 14 14 14 15 15 15 16 16 16 17 17 18 18 19 19 20 20 21 21 22 22 22 22 23 23 23 23 24 24 24 24 24 24 25 25 25 25 25 26 26 26 26 26 26 27 27 27 27 27 27 27 27 27 27 27 27 27 27 27 26 26 26 25 25 25 25 25 25 25 24 24 24 24 24 24 24 24 23
12 12 12 12 12 13 13 14 14 14 15 15 16 16 16 17 17 18 18 18 19 19 20 20 21 21 22 22 23 23 23 24 24 24 24 25 25 25 25 25 25 25 25 26 26 26 27 27 27 27 28 28 28 28 28 28 28 28 28 28 28 27 27 27 27 27 26 26 26 26 25 25 25 25 25 25 25 25 25 24 24 24 24 24 24 23
12 12 12 13 13 14 14 15 15 15 16 16 17 17 17 18 18 18 19 19 20 20 21 21 21 22 22 23 23 23 24 24 24 25 25 25 26 26 26 26 26 26 26 26 27 27 27 28 28 28 28 28 28 28 29 29 28 28 28 28 28 28 27 27 26 26 26 26 26 25 25 25 25 25 25 25 25 25 25 25 25 24 24 24 24 24
13 13 14 14 14 15 15 16 16 16 17 17 17 18 18 18 19 19 19 20 20 21 21 21 22 22 23 23 23 23 24 24 25 25 25 26 26 26 26 26 27 27 27 27 27 28 28 28 28 29 29 29 29 29 29 29 29 28 28 28 28 27 27 26 26 26 26 26 26 26 25 25 25 25 25 25 25 25 25 25 25 25 25 25 24 25
14 15 15 15 16 16 16 17 17 17 17 17 18 18 18 18 19 19 20 20 20 21 21 22 22 22 23 23 23 24 24 24 25 25 25 26 26 27 27 27 27 27 27 27 28 28 28 29 29 29 29 29 29 29 29 29 28 28 28 28 28 27 27 27 27 27 26 26 26 26 26 25 25 25 25 25 25 25 25 25 25 25 25 25 25 25
15 16 16 16 16 17 17 17 17 17 17 18 18 18 18 18 19 20 20 20 21 21 22 22 22 22 23 23 24 24 24 25 25 25 25 26 26 27 27 27 27 28 28 28 28 28 29 29 29 29 29 29 29 29 29 29 28 28 28 28 27 27 27 27 27 27 27 26 26 26 26 25 25 25 25 25 25 25 25 25 25 26 26 25 25 25
16 16 17 17 17 17 17 17 17 17 18 18 18 18 18 19 19 20 21 21 21 22 22 23 23 23 23 24 24 24 25 25 25 26 26 26 26 27 27 27 28 28 28 29 29 29 29 29 29 29 29 29 29 29 29 28 28 28 28 27 27 27 27 27 27 27 26 26 26 25 25 25 25 25 25 25 25 25 26 26 26 26 26 26 26 25
17 17 18 18 18 18 18 18 18 18 18 18 18 19 19 20 20 21 21 22 22 23 23 23 24 24 24 25 25 25 25 25 26 26 26 27 27 27 27 28 28 28 28 29 29 29 29 29 29 29 28 28 28 28 28 28 28 27 27 27 27 27 27 27 27 26 26 26 25 25 25 25 25 25 25 25 26 26 26 26 26 26 26 26 26 25
18 18 18 18 18 18 18 18 18 18 18 19 19 19 20 20 21 21 22 22 23 23 23 24 24 24 25 25 25 25 25 26 26 26 26 27 27 27 27 27 27 28 28 28 28 29 29 29 29 28 28 28 28 28 28 27 27 27 27 26 26 26 27 27 26 26 25 25 25 25 24 24 25 25 25 26 26 26 26 26 26 26 26 26 26 25
18 18 18 18 18 18 18 18 18 18 19 19 20 20 21 21 22 22 22 23 23 23 24 24 24 25 25 25 25 25 26 26 26 26 26 26 26 27 27 27 27 27 27 27 28 28 28 28 28 28 28 28 28 28 27 27 27 26 26 26 26 26 27 27 26 26 25 25 25 24 24 24 25 25 25 26 26 26 26 26 26 26 26 26 26 26
18 18 18 18 18 18 18 18 19 19 20 20 21 21 22 22 22 23 23 23 23 24 24 24 24 25 25 25 25 25 26 26 26 26 26 26 26 26 26 26 26 26 27 27 27 27 27 28 28 28 28 28 28 28 27 27 27 26 26 26 26 26 27 26 26 25 25 24 24 24 24 24 25 25 25 26 26 26 26 26 25 25 25 25 26 26
18 18 18 18 18 19 19 20 20 20 21 21 22 22 22 23 23 23 23 23 24 24 24 24 24 24 25 25 25 25 25 26 26 26 26 26 26 26 26 26 26 26 26 26 27 27 27 27 27 27 28 28 28 28 27 27 27 26 26 26 26 26 26 26 25 25 24 24 24 24 24 24 25 25 25 26 26 26 26 25 25 25 25 25 25 26
Wind_Direction
277 275 272 269 269 269 271 271 272 273 275 277 279 281 282 283 283 283 282 281 279 278 277 277 276 275 273 272 271 270 270 269 269 268 268 267 267 268 269 270 270 271 271 271 271 272 273 273 274 275 275 276 277 278 278 279 280 281 281 282 283 284 285 286 287 287 288 288 289 290 291 292 292 293 293 293 293 293 293 292 292 292 292 293 294 295
276 273 270 269 269 270 271 272 272 273 275 277 280 282 283 283 282 282 281 279 277 276 275 275 273 272 270 269 269 269 268 268 267 266 266 266 266 267 267 268 269 269 270 270 271 272 273 274 275 275 276 277 278 278 279 280 280 281 281 282 283 283 284 285 286 287 288 288 288 289 290 290 291 291 291 291 291 292 292 292 291 290 290 291 292 292
274 272 270 269 270 270 270 271 271 273 275 278 281 283 283 283 281 280 279 278 276 275 273 272 270 268 267 266 266 266 266 265 265 265 265 265 266 266 267 268 268 269 269 269 270 271 272 273 274 275 276 277 278 278 279 280 280 281 281 281 282 283 283 284 285 286 286 287 287 288 288 289 289 290 290 290 290 290 291 291 290 290 289 289 290 290
272 270 269 269 269 269 268 268 270 273 276 280 282 284 284 282 280 279 277 276 275 273 271 269 267 265 264 264 264 264 263 263 263 263 264 265 266 267 268 268 269 269 269 270 270 271 272 273 274 275 275 276 277 278 279 279 280 280 281 281 281 282 283 283 284 285 285 286 286 287 287 288 288 289 289 289 289 290 290 290 290 290 289 289 288 289
270 269 268 268 268 267 267 268 270 273 277 281 283 285 284 281 279 277 275 274 272 270 269 267 265 263 262 262 262 262 261 261 262 263 264 265 266 268 269 270 270 270 271 271 271 272 272 273 274 274 275 276 277 278 278 279 280 280 280 281 282 282 283 283 284 285 285 286 286 286 287 287 287 288 288 289 289 289 289 290 290 290 290 289 288 288
269 268 267 267 267 267 268 269 272 275 279 282 283 283 282 280 277 275 273 271 269 268 267 265 263 262 261 260 260 260 260 260 261 262 264 266 268 269 270 271 271 272 272 272 273 273 273 274 274 275 275 276 277 278 278 279 279 280 280 281 282 283 283 284 284 285 286 286 286 286 286 286 286 287 287 288 288 288 289 289 290 290 290 289 289 288
267 266 266 267 267 268 269 271 274 277 279 281 281 281 279 277 275 273 271 269 267 266 265 264 262 261 259 259 259 259 260 260 261 263 265 266 268 270 271 272 272 273 273 273 273 274 274 274 275 275 276 277 278 278 279 280 280 280 281 281 282 282 283 284 285 286 287 287 287 287 286 286 286 286 286 286 287 287 288 288 289 289 290 290 289 288
266 265 266 266 267 268 270 272 274 276 277 278 278 278 276 275 273 271 269 267 266 265 264 262 261 259 258 258 258 258 259 261 262 264 266 267 269 270 271 272 273 273 273 274 274 274 275 275 275 276 276 277 278 279 280 280 281 281 281 281 282 283 283 285 286 287 287 287 287 287 286 286 285 285 285 285 286 286 286 287 288 288 289 289 289 289
266 266 265 266 267 268 270 271 272 273 275 276 275 275 274 272 271 269 267 266 265 264 262 260 258 257 257 257 258 258 259 261 263 265 267 268 270 271 272 272 273 273 274 274 275 275 275 276 276 276 277 277 278 279 280 280 281 281 281 281 282 283 284 285 286 287 287 287 287 287 286 286 285 285 285 285 285 285 285 286 286 287 287 288 288 288
266 266 267 267 267 268 269 270 270 271 272 273 273 273 271 270 268 266 265 264 263 262 260 257 256 255 256 258 259 259 260 262 264 266 267 269 270 271 272 273 274 274 274 275 275 275 275 276 276 276 277 277 278 279 280 280 281 281 281 282 282 283 284 285 286 287 287 287 287 287 287 286 286 285 284 284 284 284 284 285 285 286 286 287 287 288
268 268 268 268 268 268 268 268 268 269 270 271 271 271 269 267 265 263 261 260 260 259 257 255 254 254 256 258 260 262 262 263 264 266 268 269 270 272 272 273 274 275 275 275 276 276 275 275 275 276 277 278 278 279 280 280 281 281 281 282 283 284 285 286 286 286 287 287 287 287 287 286 286 285 285 284 284 284 284 284 284 285 285 285 286 286
268 268 268 268 268 268 268 267 267 268 268 268 268 268 267 265 263 261 259 257 256 255 254 253 253 254 256 258 260 262 263 264 265 267 268 270 271 272 273 274 274 275 275 275 275 275 275 275 275 276 277 278 279 280 280 280 281 281 281 282 283 284 285 286 286 286 287 287 287 287 287 286 286 285 285 284 284 284 284 284 284 284 284 284 285 285
268 268 268 268 267 267 267 266 266 266 266 266 265 265 263 262 261 259 257 254 253 252 251 252 253 255 256 258 260 261 263 264 266 267 269 271 272 273 273 274 274 275 275 275 275 275 275 275 275 276 277 278 279 280 280 280 281 281 281 282 283 284 285 286 286 286 287 287 287 287 286 286 286 285 285 284 284 284 284 284 284 284 284 284 284 284
267 267 267 267 266 266 265 265 264 264 264 264 263 262 261 259 258 256 254 252 250 250 250 252 253 255 257 259 261 262 263 264 266 268 269 271 273 274 274 274 275 275 275 275 274 274 274 274 275 276 277 278 279 280 280 280 281 281 281 282 283 284 285 285 286 286 286 286 286 286 286 286 285 285 285 284 284 284 284 284 284 284 284 284 283 283
266 265 266 265 265 264 264 263 263 262 262 262 261 260 258 256 254 252 250 249 248 249 251 252 254 256 258 259 261 263 264 265 266 268 269 271 273 274 274 274 274 274 275 275 274 274 273 274 274 276 277 278 279 280 280 280 281 281 282 283 283 284 285 285 286 286 286 286 286 286 285 285 285 285 284 284 284 284 283 283 283 283 283 283 283 283
264 263 264 263 263 262 262 262 261 261 260 259 259 258 256 253 251 249 247 246 247 249 251 252 255 257 259 260 262 264 265 265 266 268 269 271 273 274 274 274 274 274 275 274 274 274 273 273 274 275 277 278 279 279 280 280 281 281 282 282 283 283 284 284 285 285 285 285 285 285 284 284 284 284 284 283 283 283 283 283 283 283 282 282 282 282
262 261 261 261 261 261 261 260 259 258 258 257 257 255 253 250 248 246 246 246 247 249 251 253 255 258 260 262 263 265 266 266 267 268 269 271 273 274 274 274 273 273 274 274 274 274 273 273 274 275 276 277 278 279 279 280 280 281 281 282 283 283 283 284 284 285 285 285 284 284 284 284 283 283 283 283 283 282 282 282 282 282 282 281 281 282
259 259 258 258 258 258 258 258 257 257 256 255 254 253 251 248 246 245 246 247 248 250 252 254 256 258 260 262 264 265 267 266 267 269 270 271 272 273 274 274 273 273 273 273 273 273 273 273 274 275 276 277 278 279 279 280 280 281 281 282 282 283 283 283 284 284 284 284 284 284 283 283 283 283 282 282 282 282 282 282 281 281 281 281 281 281
256 256 256 257 257 257 257 256 255 254 253 252 250 248 247 246 246 246 247 248 249 251 253 255 257 259 261 263 264 266 267 267 268 269 270 271 271 273 274 274 273 273 273 273 273 274 274 274 274 275 276 277 278 279 279 280 280 281 281 281 282 282 283 283 284 284 284 284 283 283 283 283 283 283 282 282 282 282 281 281 281 280 280 280 280 280
254 255 255 256 256 257 256 255 253 251 249 248 246 245 244 244 245 246 247 249 250 252 254 255 258 260 262 263 265 266 267 268 269 270 271 271 271 272 273 273 272 272 273 273 274 275 275 275 275 276 277 278 278 279 279 280 280 281 281 281 281 282 282 283 283 284 283 283 283 283 283 283 283 282 282 282 282 281 281 281 281 280 280 280 280 280
254 255 256 257 256 255 253 251 249 247 245 244 243 243 243 244 245 246 248 250 251 253 255 257 259 261 262 263 265 267 268 268 269 270 271 271 271 271 271 271 272 272 273 274 275 276 276 276 276 276 277 278 279 279 279 279 280 280 280 281 281 282 282 283 283 283 283 283 283 283 283 283 282 282 282 282 281 281 281 280 280 280 280 280 279 279
255 256 256 256 255 252 249 247 244 243 242 241 241 242 243 244 245 247 249 251 253 255 256 258 260 262 263 264 266 268 269 269 269 270 270 271 270 270 271 271 271 272 273 274 275 277 277 277 277 278 278 279 279 280 279 279 279 280 280 280 281 281 282 283 283 283 282 282 283 283 283 282 282 282 282 281 281 281 280 280 280 280 280 280 279 279
256 255 254 253 252 249 246 243 241 240 240 242 243 244 246 246 248 249 251 253 255 256 258 260 262 264 265 266 267 269 269 269 269 270 270 270 269 270 271 271 272 273 274 275 276 278 279 279 279 279 279 279 280 280 280 279 279 279 279 280 280 281 282 282 283 283 282 282 282 282 282 282 282 282 282 281 281 281 280 280 280 279 279 279 279 279
255 253 251 250 248 245 243 241 240 240 241 243 245 247 249 250 251 253 254 256 257 258 260 262 264 265 266 267 268 269 270 269 269 269 270 270 270 270 272 273 273 274 275 276 277 279 280 280 280 281 280 280 280 280 280 279 278 278 279 279 280 281 281 282 282 282 282 282 282 282 282 282 282 282 282 282 281 281 280 280 280 279 279 278 278 278
251 249 247 245 243 242 241 240 240 240 242 243 245 247 249 251 253 254 256 258 259 260 262 263 265 266 267 269 269 270 270 270 270 270 270 271 271 272 273 274 275 275 276 277 278 280 280 281 281 281 281 281 280 280 279 278 278 278 278 279 280 280 281 281 281 281 281 281 281 282 282 282 282 282 282 282 281 281 281 280 280 279 279 278 277 277
247 245 243 241 240 240 240 240 240 241 242 244 246 248 250 252 254 256 258 259 260 261 263 264 265 266 268 268 269 269 270 270 271 271 271 272 273 274 275 276 276 277 277 278 279 280 281 281 282 282 282 281 281 280 279 278 278 278 278 279 279 280 280 280 280 281 281 281 281 281 281 281 281 281 281 281 281 281 281 280 280 279 279 278 277 276
244 242 241 240 240 240 240 240 241 242 243 245 246 248 250 253 255 257 258 260 261 262 263 264 265 266 268 269 269 269 270 271 272 272 272 273 275 276 276 277 278 278 279 280 280 281 282 282 282 282 283 282 281 280 280 279 278 278 278 279 279 279 280 280 280 280 280 280 280 280 280 280 280 281 281 281 281 281 281 281 280 279 279 278 277 276
244 243 242 242 242 241 242 242 243 244 245 246 247 249 252 255 257 258 258 260 262 263 264 264 265 266 268 269 270 271 271 272 273 273 273 275 276 277 277 278 279 279 280 281 281 282 282 282 282 282 282 282 281 280 280 279 279 278 279 279 279 280 280 280 280 280 280 280 280 280 280 280 280 280 281 281 281 281 281 281 280 279 279 278 277 276
245 244 244 244 244 245 245 246 246 246 247 248 249 251 254 257 258 259 260 261 263 264 264 265 266 267 268 270 272 273 273 274 274 274 274 276 277 278 278 279 280 280 281 281 282 282 282 282 281 281 281 281 281 280 279 279 278 279 279 280 280 281 281 281 281 281 280 280 280 280 280 280 280 280 281 281 281 281 281 280 280 279 279 278 277 276
247 246 247 247 248 248 248 249 249 249 249 250 251 253 256 258 259 261 261 263 264 264 265 266 267 268 270 272 273 274 275 275 274 274 275 277 278 279 279 280 280 280 281 282 282 282 282 281 281 281 280 281 280 280 279 279 278 279 279 280 281 282 282 282 281 281 281 280 280 280 280 280 280 280 280 280 281 281 280 280 280 279 278 278 277 276
247 247 247 248 249 249 249 249 250 251 252 253 254 256 258 259 260 261 263 264 265 266 267 268 269 270 271 273 274 275 276 276 276 275 275 277 279 279 280 280 281 281 281 281 282 282 282 282 281 281 281 281 280 280 279 279 279 279 279 280 281 282 282 282 281 281 281 280 280 280 280 280 280 280 280 280 280 280 280 280 279 279 278 278 277 276
247 247 247 248 249 249 250 251 252 253 254 255 257 258 259 260 260 261 263 265 267 268 269 270 271 272 273 274 275 276 277 278 278 277 278 279 280 281 281 281 281 281 282 281 281 282 282 282 282 282 281 281 280 280 280 279 279 279 280 280 281 281 281 281 281 281 280 280 280 280 280 280 280 279 280 280 280 280 280 279 279 278 278 277 277 276
247 248 248 249 250 251 251 252 253 254 256 257 259 260 261 261 262 262 263 265 268 270 271 272 273 274 276 276 277 278 279 280 279 279 280 281 281 281 282 282 282 282 282 282 282 282 282 282 283 282 282 281 280 280 280 280 279 280 280 280 280 280 280 280 280 280 280 280 279 279 279 279 279 279 279 279 279 279 279 278 278 277 277 277 276 275
248 249 250 251 252 253 254 255 256 257 258 259 261 262 263 263 264 265 265 266 268 271 273 274 275 276 278 279 280 280 281 281 280 280 280 281 281 281 282 282 282 282 282 283 283 283 283 282 283 283 283 282 281 280 280 280 280 280 280 280 280 279 279 280 280 279 279 279 279 279 279 279 279 279 279 278 278 278 278 278 277 277 277 276 275 275
251 252 253 254 255 256 257 259 260 261 262 262 263 264 265 265 266 267 268 268 270 271 273 275 277 278 279 280 280 281 282 281 281 280 280 281 281 281 282 281 281 282 282 283 283 283 283 283 283 283 283 283 282 281 280 280 280 280 280 280 279 279 279 279 279 279 279 279 279 279 279 278 278 278 278 278 277 277 277 277 276 276 276 275 275 274
254 255 256 258 259 259 261 262 263 264 264 265 266 267 267 268 268 269 270 270 272 273 274 276 278 279 280 281 281 281 281 281 281 280 279 280 281 282 282 281 282 282 282 283 283 283 284 284 283 283 283 283 283 282 281 281 281 281 280 280 279 279 279 279 279 279 278 278 278 278 278 278 277 277 277 277 276 276 276 276 275 275 275 274 274 273
257 258 259 260 260 261 262 263 264 264 265 266 267 269 270 270 271 272 272 273 274 275 276 278 279 280 280 281 281 281 281 281 280 280 279 279 281 282 282 282 282 282 282 283 283 283 283 284 284 283 283 282 282 282 282 281 281 280 280 279 279 279 279 279 278 278 277 277 277 277 277 276 276 276 276 276 276 276 276 276 275 275 274 274 273 272
258 259 260 261 261 262 262 263 264 265 266 267 269 270 272 273 274 274 275 275 276 277 278 279 280 280 281 281 281 281 281 281 281 280 280 280 281 282 283 283 283 283 283 283 283 283 283 284 284 284 284 283 282 282 282 282 281 280 279 279 279 279 278 278 278 277 277 276 276 276 275 275 274 274 275 275 275 276 276 276 275 275 274 274 273 272
259 260 261 261 262 263 264 264 265 267 268 269 270 272 273 274 275 276 277 278 278 278 279 280 280 280 281 281 281 281 282 282 281 281 280 280 281 282 283 284 284 284 284 284 284 284 284 283 283 284 284 284 283 283 282 282 281 280 280 280 279 279 278 278 277 277 276 276 275 275 274 274 274 274 274 274 275 275 275 275 275 274 274 274 273 272
259 260 261 262 263 264 265 266 267 268 269 270 271 273 274 275 276 278 278 279 279 280 280 280 280 281 281 281 281 282 282 282 282 282 281 281 281 282 283 284 284 285 285 285 285 284 284 284 283 283 283 284 284 283 283 282 281 281 280 280 279 279 278 277 277 276 276 275 274 274 273 273 273 273 273 274 274 274 273 273 273 273 273 272 272 271
260 261 262 263 264 265 266 267 268 269 270 272 273 274 275 276 277 278 279 280 280 281 281 281 282 282 283 282 282 282 282 282 282 282 282 282 282 283 283 284 285 285 286 285 285 285 285 284 284 284 283 283 283 283 282 282 282 281 281 280 279 279 278 278 277 276 275 274 273 273 272 273 273 273 273 273 273 273 273 273 272 272 272 271 270 270
260 261 262 263 264 265 267 268 270 271 273 275 276 276 277 278 278 279 280 280 281 282 283 283 283 284 284 284 284 283 283 283 283 283 283 283 283 283 283 284 284 285 286 286 286 285 285 285 284 284 284 284 283 283 282 282 282 281 280 280 279 279 279 278 277 276 274 273 273 272 272 272 272 272 272 272 273 273 273 273 272 272 271 271 270 269
260 262 263 264 265 267 269 270 272 274 275 276 277 278 278 279 280 281 281 282 282 283 284 284 284 284 284 285 285 285 285 284 284 284 284 284 284 284 284 284 284 285 285 286 286 286 286 285 285 285 285 284 284 283 282 282 282 281 280 280 279 279 278 278 277 276 274 273 273 272 272 272 272 272 272 272 272 272 273 272 272 271 271 270 270 270
263 265 266 267 268 270 271 272 273 275 276 277 278 279 280 281 282 283 283 283 283 283 284 284 285 285 285 286 286 287 287 287 286 286 285 285 285 285 284 284 285 285 285 286 286 287 287 286 286 285 285 285 284 283 282 282 281 281 280 280 279 278 277 277 277 277 275 274 273 272 272 271 271 271 271 271 271 272 272 272 272 272 271 271 270 270
267 268 269 270 271 272 273 274 275 276 277 278 279 281 282 283 283 283 283 284 284 284 284 285 286 286 287 287 287 288 288 288 288 287 287 286 286 285 285 285 285 285 285 286 286 287 287 287 286 286 286 285 284 283 282 281 281 281 280 280 279 278 277 277 277 277 276 275 273 272 272 271 271 271 272 271 271 271 271 272 272 272 272 271 271 270
269 270 271 272 273 274 275 276 277 278 279 280 281 282 283 283 284 284 284 284 285 285 285 286 286 287 287 287 287 288 288 288 288 288 288 287 286 286 285 285 285 286 286 286 286 286 286 286 286 286 286 285 284 283 282 281 280 280 280 279 279 278 278 277 277 276 275 275 274 273 272 271 271 271 272 272 272 271 271 271 271 271 271 271 271 270
271 272 273 274 275 276 277 278 278 279 280 281 282 283 283 284 284 285 285 286 286 286 286 286 286 286 286 287 287 287 287 287 287 288 288 288 288 287 287 287 286 286 286 286 286 286 286 286 286 286 285 285 284 283 282 281 280 279 279 279 278 278 277 277 277 276 275 274 273 273 272 272 272 272 272 272 272 272 271 271 270 270 270 270 270 270
272 273 274 275 276 277 278 278 279 280 281 282 283 284 284 284 285 285 286 286 286 286 286 286 287 287 287 287 287 287 288 288 288 288 288 288 288 289 289 289 288 288 288 288 287 287 286 286 286 285 285 284 284 283 282 281 280 279 279 278 278 277 277 277 277 276 275 274 273 273 272 272 273 273 273 274 273 272 272 271 270 270 270 270 270 270
273 273 274 275 276 277 278 279 280 281 282 283 284 284 285 285 285 285 286 286 286 286 286 287 287 287 288 288 289 289 289 290 290 290 290 289 289 290 290 290 290 290 290 289 289 288 287 287 285 284 284 284 283 283 282 281 280 279 279 278 277 277 277 277 277 276 275 274 273 273 273 273 273 274 274 274 274 273 272 271 270 269 269 270 270 270
273 274 274 275 276 277 278 279 280 281 282 283 284 285 285 286 286 287 287 287 287 287 288 288 288 289 289 290 290 291 291 291 292 291 291 291 290 290 290 290 290 290 290 290 290 289 289 288 287 285 283 282 282 281 281 280 280 279 278 277 277 277 277 277 277 276 275 275 274 274 274 274 274 274 274 274 273 273 272 271 270 269 269 270 270 270
273 274 275 276 277 278 279 280 281 282 283 284 285 286 286 287 287 288 288 288 289 289 289 289 290 290 290 291 291 291 291 291 291 291 291 291 290 290 290 290 290 290 290 290 290 290 290 289 288 287 285 282 280 280 280 279 279 278 278 277 277 276 276 276 276 276 276 276 276 275 275 275 274 274 273 273 273 272 272 271 270 270 270 270 271 271